Location: Keewatin
(47.4004°N, 93.0827°W)
Time: 05:01:55
(UTC+00:00)

Envisat - Pass Details

Date: 12 December 2019
Orbit: 764 x 766 km, 98.1° (Epoch: 20 January)

Event Time Altitude Azimuth Distance (km) Brightness Sun altitude
Rises 23:03:48 0° 135° (SE) 3,224 6.0 -7.0°
Reaches altitude 10° 23:06:18 10° 126° (SE) 2,302 5.2 -7.4°
Maximum altitude 23:10:44 31° 65° (ENE) 1,317 3.7 -8.0°
Drops below altitude 10° 23:15:11 10° 4° (N) 2,316 5.2 -8.7°
Sets 23:17:42 0° 355° (N) 3,246 6.1 -9.1°
